Location: Paris
(48.6709°N, 2.3750°E)
Time: 16:56:18
(UTC+02:00)

QB50P2 - Pass Details

Date: 02 July 2022
Orbit: 590 x 605 km, 97.9° (Epoch: 18 August)

Event Time Altitude Azimuth Distance (km) Brightness Sun altitude
Rises 02:14:47 0° 27° (NNE) 2,863 ? -18.1°
Reaches altitude 10° 02:17:32 10° 46° (NE) 1,957 ? -18.1°
Maximum altitude 02:20:33 19° 91° (E) 1,464 ? -18.0°
Enters shadow 02:22:30 14° 124° (SE) 1,680 ? -18.0°
